Weather History for Lebanon, NH

Change the Weather History Date:

Tuesday, May 6, 2014

  Actual Average Record
Temperature  
Mean Temperature 48 °F -  
Max Temperature 61 °F 64 °F 87 °F (1930)
Min Temperature 35 °F 39 °F 26 °F (1961)
Degree Days  
Heating Degree Days 17    
Moisture  
Dew Point 28 °F    
Average Humidity 50    
Maximum Humidity 92    
Minimum Humidity 21    
Precipitation  
Precipitation 0.00 in - - ()
Sea Level Pressure  
Sea Level Pressure 29.93 in    
Wind  
Wind Speed 5 mph (NNW)    
Max Wind Speed 16 mph    
Max Gust Speed 23 mph    
Visibility 10 miles    
Events      
Averages and records for this station are not official NWS values.
T = Trace of Precipitation, MM = Missing Value Source: NWS Daily Summary

Daily Weather History Graph

Daily Weather History Graph

Search for Another Location

Airport:

Trip Planner

Search our weather history database for the weather conditions in past years. The results will help you decide how hot, cold, wet, or windy it might be!

Date:

Astronomy

May. 06, 2014 Rise Set
Actual Time 5:34 AM EDT 7:57 PM EDT
Civil Twilight 5:02 AM EDT 8:29 PM EDT
Nautical Twilight 4:23 AM EDT 9:09 PM EDT
Astronomical Twilight 3:38 AM EDT 9:54 PM EDT
Moon 11:50 AM EDT (5/6) 1:13 AM EDT (5/6)
Length of Visible Light 15h 26m
Length of Day
14h 22m
Waxing Crescent, 46% of the Moon is Illuminated
May 6
Waxing Crescent
May 6
First Quarter
May 14
Full
May 21
Last Quarter
May 28
New

Hourly Weather History & Observations

Time (EDT) Temp. Windchill Dew Point Humidity Pressure Visibility Wind Dir Wind Speed Gust Speed Precip Events Conditions
12:53 AM 39.9 °F 36.7 °F 36.0 °F 86% 29.89 in 10.0 mi South 4.6 mph - N/A   Mostly Cloudy
1:53 AM 41.0 °F - 37.0 °F 86% 29.86 in 10.0 mi Calm Calm - N/A   Overcast
2:53 AM 39.0 °F - 35.1 °F 86% 29.86 in 10.0 mi Calm Calm - N/A   Clear
3:53 AM 35.1 °F - 33.1 °F 92% 29.87 in 10.0 mi Calm Calm - N/A   Clear
7:53 AM 43.0 °F - 37.0 °F 80% 29.90 in 10.0 mi Calm Calm - N/A   Clear
8:53 AM 46.9 °F - 37.0 °F 68% 29.90 in 10.0 mi Calm Calm - N/A   Clear
10:53 AM 54.0 °F - 30.9 °F 41% 29.90 in 10.0 mi North 6.9 mph - N/A   Overcast
11:53 AM 57.0 °F - 30.0 °F 36% 29.89 in 10.0 mi NW 8.1 mph 16.1 mph N/A   Scattered Clouds
12:53 PM 59.0 °F - 28.9 °F 32% 29.88 in 10.0 mi NNW 12.7 mph 20.7 mph N/A   Mostly Cloudy
1:53 PM 57.9 °F - 25.0 °F 28% 29.88 in 10.0 mi NW 13.8 mph 19.6 mph N/A   Overcast
2:53 PM 60.1 °F - 23.0 °F 24% 29.88 in 10.0 mi WNW 16.1 mph 21.9 mph N/A   Mostly Cloudy
3:53 PM 61.0 °F - 21.0 °F 21% 29.89 in 10.0 mi NW 12.7 mph 19.6 mph N/A   Mostly Cloudy
4:53 PM 60.1 °F - 21.0 °F 22% 29.90 in 10.0 mi North 12.7 mph 23.0 mph N/A   Scattered Clouds
5:53 PM 59.0 °F - 21.9 °F 24% 29.92 in 10.0 mi NNW 12.7 mph 20.7 mph N/A   Clear
6:53 PM 57.0 °F - 21.0 °F 25% 29.95 in 10.0 mi NNW 12.7 mph 20.7 mph N/A   Clear
7:53 PM 53.1 °F - 21.9 °F 30% 29.99 in 10.0 mi North 9.2 mph - N/A   Clear
8:53 PM 51.1 °F - 23.0 °F 33% 30.02 in 10.0 mi North 4.6 mph - N/A   Clear
9:53 PM 45.0 °F - 27.0 °F 49% 30.04 in 10.0 mi Calm Calm - N/A   Clear
10:53 PM 39.0 °F - 28.9 °F 67% 30.06 in 10.0 mi Calm Calm - N/A   Clear
11:53 PM 35.1 °F - 28.0 °F 76% 30.07 in 10.0 mi Calm Calm - N/A   Clear